Weather History for Lancaster, OH

Change the Weather History Date:

Sunday, March 10, 2013

  Actual Average Record
Temperature  
Mean Temperature 58 °F -  
Max Temperature 71 °F 47 °F 79 °F (2009)
Min Temperature 46 °F 25 °F -7 °F (1984)
Degree Days  
Heating Degree Days 6    
Growing Degree Days 8 (Base 50)    
Moisture  
Dew Point 30 °F    
Average Humidity 35    
Maximum Humidity 46    
Minimum Humidity 22    
Precipitation  
Precipitation 0.00 in - - ()
Sea Level Pressure  
Sea Level Pressure 30.00 in    
Wind  
Wind Speed 8 mph (South)    
Max Wind Speed 16 mph    
Max Gust Speed 22 mph    
Visibility 10 miles    
Events      
Averages and records for this station are not official NWS values.
T = Trace of Precipitation, MM = Missing Value Source: NWS Daily Summary

Daily Weather History Graph

Daily Weather History Graph

Search for Another Location

Airport:

Trip Planner

Search our weather history database for the weather conditions in past years. The results will help you decide how hot, cold, wet, or windy it might be!

Date:

Astronomy

Mar. 10, 2013 Rise Set
Actual Time 7:49 AM EDT 7:32 PM EDT
Civil Twilight 7:22 AM EDT 7:59 PM EDT
Nautical Twilight 6:51 AM EDT 8:30 PM EDT
Astronomical Twilight 6:20 AM EDT 9:02 PM EDT
Moon 6:48 AM EDT (3/10) 6:39 PM EDT (3/10)
Length of Visible Light 12h 36m
Length of Day
11h 42m
Waning Crescent, 2% of the Moon is Illuminated
Mar 10
Waning Crescent
Mar 11
New
Mar 19
First Quarter
Mar 27
Full
Apr 3
Last Quarter

Hourly Weather History & Observations

Time (EDT) Temp. Dew Point Humidity Pressure Visibility Wind Dir Wind Speed Gust Speed Precip Events Conditions
12:53 AM 48.0 °F 28.0 °F 46% 30.09 in 10.0 mi SSE 5.8 mph - N/A   Overcast
1:53 AM 46.9 °F 27.0 °F 46% 30.06 in 10.0 mi SSE 8.1 mph - N/A   Clear
3:53 AM 46.9 °F 27.0 °F 46% 30.04 in 10.0 mi SSE 10.4 mph - N/A   Clear
4:53 AM 48.0 °F 27.0 °F 44% 30.03 in 10.0 mi SSE 6.9 mph - N/A   Scattered Clouds
5:53 AM 48.9 °F 28.0 °F 44% 30.04 in 10.0 mi SSE 8.1 mph - N/A   Mostly Cloudy
6:53 AM 48.9 °F 28.9 °F 46% 30.06 in 10.0 mi South 4.6 mph - N/A   Scattered Clouds
8:53 AM 48.9 °F 28.9 °F 46% 30.11 in 10.0 mi SE 9.2 mph - N/A   Partly Cloudy
9:53 AM 52.0 °F 30.0 °F 43% 30.12 in 10.0 mi SSE 6.9 mph - N/A   Scattered Clouds
10:53 AM 57.0 °F 30.9 °F 37% 30.09 in 10.0 mi SE 11.5 mph - N/A   Clear
11:53 AM 62.1 °F 32.0 °F 32% 30.07 in - South 6.9 mph - N/A   Unknown
12:53 PM 64.9 °F 32.0 °F 29% 30.05 in 10.0 mi SSW 16.1 mph 21.9 mph N/A   Clear
1:53 PM 64.9 °F 30.9 °F 28% 30.04 in 10.0 mi SW 10.4 mph 19.6 mph N/A   Clear
2:53 PM 68.0 °F 32.0 °F 26% 30.00 in 10.0 mi South 9.2 mph - N/A   Clear
3:53 PM 71.1 °F 30.0 °F 22% 29.98 in 10.0 mi South 16.1 mph - N/A   Clear
4:53 PM 71.1 °F 30.0 °F 22% 29.96 in 10.0 mi SW 8.1 mph - N/A   Clear
5:53 PM 69.1 °F 30.0 °F 23% 29.94 in 10.0 mi SSW 4.6 mph - N/A   Clear
6:53 PM 66.0 °F 34.0 °F 30% 29.94 in 10.0 mi South 3.5 mph - N/A   Clear
7:53 PM 60.1 °F 32.0 °F 35% 29.92 in 10.0 mi SE 6.9 mph - N/A   Clear
8:53 PM 60.1 °F 30.9 °F 33% 29.92 in 10.0 mi SE 3.5 mph - N/A   Clear
9:53 PM 60.1 °F 30.0 °F 32% 29.89 in 10.0 mi SSE 5.8 mph - N/A   Clear
10:53 PM 63.0 °F 30.9 °F 30% 29.88 in 10.0 mi SSE 11.5 mph - N/A   Clear
11:53 PM 62.1 °F 33.1 °F 34% 29.89 in 10.0 mi South 10.4 mph - N/A   Clear
12:53 AM 63.0 °F 33.1 °F 33% 29.88 in 10.0 mi South 15.0 mph - N/A   Clear